Theta_e
323 326 328 330 331 331 333 335 336 337 342 340 342 343 344 345 345 345 342 340 339 341 345 349 349 346 343 340 344 344 336 330 330
321 327 329 331 332 333 333 334 335 336 339 342 341 342 342 343 348 346 344 342 339 338 341 349 348 348 343 343 344 341 338 332 328
321 323 330 332 333 334 335 335 336 337 339 341 343 343 342 342 346 349 346 344 339 334 337 348 348 349 344 343 344 340 333 328 328
319 321 325 329 332 335 335 337 337 339 340 340 342 345 345 344 345 348 351 347 345 342 342 347 348 348 347 343 342 342 333 328 326
317 324 326 325 327 331 333 339 340 341 342 343 344 346 346 347 347 349 350 350 350 347 346 346 349 348 348 343 343 339 332 327 325
321 328 329 329 326 330 332 334 339 342 344 344 346 347 349 350 351 352 351 351 352 350 347 347 349 348 347 342 343 339 333 329 325
326 329 334 335 334 333 330 332 336 342 345 347 347 350 351 350 352 354 355 354 353 350 347 348 348 349 348 344 343 339 334 328 324
328 332 338 339 335 336 338 337 334 343 345 347 349 349 351 351 352 354 354 353 353 352 349 349 349 348 346 344 344 339 332 327 324
332 332 332 340 340 340 338 339 341 344 344 345 348 348 349 352 351 352 353 354 354 353 350 349 349 347 345 344 345 340 336 330 323
331 329 332 340 340 340 338 340 343 342 347 348 346 346 347 348 349 350 351 353 353 352 349 349 349 349 347 345 345 335 334 334 323
328 330 329 337 338 339 340 343 344 346 347 348 347 347 347 351 348 347 351 351 352 351 351 352 351 350 348 345 344 333 332 333 322
328 327 328 330 336 339 343 343 346 346 346 346 348 348 348 350 352 350 350 349 350 350 350 351 352 351 348 346 344 330 328 328 321
329 329 328 334 339 346 347 347 347 346 345 346 346 348 349 351 349 351 350 350 351 346 348 350 351 349 348 340 343 325 325 326 322
329 325 335 337 339 342 343 347 343 343 345 345 348 348 348 348 348 346 346 346 347 346 346 345 345 347 347 343 333 326 322 322 323
326 325 330 331 329 332 336 339 342 341 340 343 347 344 344 345 347 346 346 342 342 343 344 342 343 346 340 337 331 325 321 320 324
325 324 326 331 334 337 339 340 339 337 335 339 335 334 335 339 344 345 344 339 338 340 342 346 346 341 337 331 330 327 320 319 320
322 322 325 331 330 331 332 333 331 328 332 330 327 326 330 336 341 341 340 342 340 338 345 345 344 342 336 333 329 328 324 322 321
321 323 327 330 329 329 328 328 327 329 328 328 328 328 331 336 339 342 340 338 337 340 344 341 346 343 342 336 331 330 324 321 322
324 326 325 324 323 322 323 328 325 327 329 330 330 330 333 337 339 338 336 334 332 316 315 314 313 312 329 342 325 314 311 310 308
322 325 325 324 324 327 325 327 329 331 331 331 333 333 335 336 332 335 334 331 331 330 322 309 308 308 307 309 321 308 308 306 305
Wind_Speed
8 10 15 17 17 15 15 16 12 12 12 9 10 11 11 7 7 6 5 6 5 5 5 4 5 6 6 6 6 6 6 3 3
8 9 16 17 16 15 15 16 17 17 13 9 10 12 9 7 7 7 8 8 6 4 4 4 6 7 6 6 6 6 6 5 4
5 6 14 14 15 15 15 16 16 12 10 14 12 12 10 8 9 9 7 6 7 7 6 6 7 6 6 6 6 6 6 4 4
7 10 6 7 9 13 9 8 14 14 11 10 7 10 10 9 9 9 8 8 8 8 6 7 7 8 7 7 7 7 6 6 6
3 5 8 3 4 7 8 11 12 12 9 9 12 10 9 11 8 8 10 11 9 8 9 7 9 9 8 7 7 7 7 7 6
1 6 7 5 6 7 8 7 9 13 15 16 14 12 12 10 9 9 10 10 8 8 8 8 7 8 9 9 8 8 7 7 8
8 7 7 6 4 4 6 7 7 7 8 9 9 9 10 10 10 12 10 7 7 7 8 8 9 10 10 10 9 9 8 7 7
9 8 8 5 4 6 5 5 5 3 5 6 7 8 9 12 11 9 6 7 8 7 8 9 10 8 7 9 10 8 10 10 8
6 7 7 5 5 6 6 7 6 4 5 5 4 5 8 7 6 6 8 7 8 8 7 6 7 8 10 11 9 13 15 13 9
9 8 7 8 7 7 6 6 5 4 3 2 5 5 4 5 4 5 6 6 6 7 7 7 10 11 13 13 12 17 20 20 10
6 7 6 7 6 6 4 3 4 4 4 3 2 1 1 4 5 5 6 6 8 8 8 11 10 10 11 9 9 16 18 19 11
2 3 4 4 6 4 5 5 4 4 3 3 2 2 2 3 3 5 6 6 9 7 6 8 10 9 11 12 8 16 21 16 10
4 4 5 7 7 5 6 5 6 6 3 2 3 5 6 4 4 5 6 7 7 5 5 7 6 8 9 9 8 17 20 15 8
5 5 8 6 6 7 6 5 7 6 4 4 3 2 2 4 5 6 5 4 3 5 6 5 6 7 7 9 11 15 22 19 11
8 7 6 7 7 6 7 6 5 5 3 4 5 2 4 5 5 4 4 6 6 5 5 6 5 7 5 6 9 15 19 20 15
8 9 8 6 8 8 5 6 6 5 4 3 2 2 5 6 6 5 4 4 5 4 4 5 5 5 5 5 5 7 17 19 16
6 7 6 5 6 7 6 4 4 3 2 3 4 5 6 5 6 5 4 3 3 3 7 6 6 7 8 7 7 7 8 9 9
4 3 3 4 6 6 7 3 2 3 5 3 5 6 7 5 5 5 5 4 4 4 5 5 6 7 7 7 8 12 16 16 13
4 1 3 2 2 3 4 2 4 6 4 3 5 7 5 5 4 4 4 4 4 6 9 9 8 10 8 8 12 11 19 19 15
4 5 3 0 3 3 2 2 5 6 6 5 7 7 7 5 5 4 4 4 5 5 5 9 10 9 10 12 8 15 20 19 19
Wind_Direction
155 172 186 194 185 181 187 190 196 183 183 197 192 193 200 195 189 190 181 185 190 196 192 180 171 173 178 169 163 147 148 135 139
184 186 185 188 187 181 182 187 195 193 183 187 194 206 195 193 182 190 195 191 192 193 183 173 179 182 174 175 165 158 155 142 142
344 251 197 179 187 185 187 192 196 191 187 195 193 204 204 199 199 196 199 180 192 199 199 181 176 184 175 167 161 161 150 149 150
79 90 100 166 197 203 174 176 187 187 187 192 192 197 204 199 198 200 195 199 199 197 185 187 182 187 178 177 172 170 159 157 155
100 98 118 144 173 177 169 175 183 185 187 191 208 197 207 204 195 193 202 212 204 181 193 188 191 187 183 181 178 166 166 160 159
34 54 62 117 165 181 177 169 174 184 191 208 218 208 205 204 205 204 211 215 207 191 189 192 186 179 183 179 177 171 176 168 164
74 57 42 53 96 163 171 164 166 178 185 188 186 187 190 199 205 211 213 196 194 197 193 187 189 193 186 180 176 178 169 162 164
77 48 50 67 87 93 96 134 173 189 193 186 180 185 192 210 213 211 193 186 194 194 191 197 196 178 181 177 179 178 171 161 164
116 121 129 117 101 97 99 106 109 145 210 219 190 201 214 220 209 193 196 197 201 199 196 190 186 186 184 184 188 183 172 165 159
142 146 143 156 162 151 153 136 121 113 105 103 195 209 225 228 223 208 200 196 193 197 198 189 197 195 192 196 189 176 171 170 164
163 140 165 155 126 94 94 98 86 87 62 48 54 59 217 236 219 219 209 200 203 208 192 200 201 203 208 197 209 180 173 173 168
185 167 178 157 131 129 131 125 103 99 62 11 7 319 268 254 220 213 202 207 214 210 204 201 205 200 198 200 200 181 175 166 167
212 246 166 137 141 132 129 135 133 137 171 225 290 309 298 258 247 249 225 214 223 194 203 215 197 201 198 198 183 176 174 167 160
180 179 142 120 131 150 175 171 149 140 142 192 225 323 298 271 256 253 242 253 227 221 216 209 207 196 181 182 170 175 176 167 167
141 160 145 158 149 172 195 173 147 145 153 217 210 231 277 268 257 238 237 233 252 229 202 206 193 184 175 182 175 178 191 179 180
170 179 174 172 167 164 175 168 167 157 234 195 220 272 276 267 257 243 230 233 258 255 219 214 206 184 196 194 184 182 191 186 176
200 186 181 162 151 165 179 186 177 196 231 256 282 298 282 265 241 260 254 215 211 226 245 234 227 199 195 187 181 180 184 195 189
215 199 146 169 181 181 205 202 257 266 269 269 281 287 281 269 225 222 234 223 219 215 230 231 236 223 205 193 194 202 185 184 197
122 144 21 26 339 340 314 314 282 276 288 303 294 289 275 255 238 221 225 227 248 261 257 260 237 236 221 209 218 191 185 189 188
77 70 74 332 278 295 282 281 299 307 300 297 282 265 273 251 235 232 221 219 223 239 244 249 258 257 232 219 212 187 185 184 179